This demonstration page uses our WeatherBlox Daily Observations layout. Learn more.

Left ArrowRight Arrow

Hourly Observations for November 17, 2020

Temp ( °F °C ) Dew Point ( °F °C ) Humidity (%) Winds ( mph kmh ) Pressure ( in mb ) Visibility ( mi km ) Precip ( " mm )
12:15 am 00:15 Clear 46 8 34 1 62 62 WNW 14 22 30.10 1019 10 16 N/A
12:35 am 00:35 Clear 45 7 36 2 71 71 WNW 17 28 30.11 1020 10 16 N/A
12:55 am 00:55 Clear 43 6 36 2 76 76 WNW 16 26 30.11 1020 10 16 N/A
1:15 am 01:15 Clear 43 6 36 2 76 76 WNW 20 31 30.12 1020 10 16 N/A
1:35 am 01:35 Clear 43 6 36 2 76 76 W 20 31 30.13 1020 10 16 N/A
1:55 am 01:55 Partly Cloudy 43 6 37 3 81 81 WNW 20 31 30.14 1021 10 16 N/A
2:15 am 02:15 Mostly Cloudy 41 5 37 3 87 87 W 16 26 30.16 1021 10 16 N/A
2:35 am 02:35 Partly Cloudy 41 5 37 3 87 87 WNW 24 39 30.16 1021 10 16 N/A
2:55 am 02:55 Clear 39 4 37 3 93 93 WNW 15 24 30.17 1022 10 16 N/A
3:15 am 03:15 Clear 39 4 37 3 93 93 WNW 17 28 30.18 1022 10 16 N/A
3:35 am 03:35 Clear 39 4 37 3 93 93 WNW 16 26 30.19 1022 10 16 N/A
3:55 am 03:55 Clear 37 3 37 3 100 100 WNW 17 28 30.21 1023 10 16 N/A
4:15 am 04:15 Clear 37 3 37 3 100 100 WNW 14 22 30.22 1024 10 16 N/A
4:35 am 04:35 Clear 37 3 37 3 100 100 WNW 15 24 30.23 1024 10 16 N/A
4:55 am 04:55 Clear 37 3 36 2 93 93 WNW 16 26 30.24 1024 10 16 N/A
5:15 am 05:15 Clear 36 2 36 2 100 100 WNW 16 26 30.27 1025 10 16 N/A
5:35 am 05:35 Clear 36 2 34 1 93 93 WNW 17 28 30.28 1025 10 16 N/A
5:55 am 05:55 Clear 36 2 34 1 93 93 WNW 17 28 30.29 1026 10 16 N/A
6:15 am 06:15 Clear 34 1 34 1 100 100 WNW 14 22 30.31 1026 10 16 N/A
6:35 am 06:35 Clear 34 1 32 undefined 93 93 WNW 17 28 30.32 1027 10 16 N/A
6:55 am 06:55 Clear 34 1 32 undefined 93 93 WNW 20 31 30.33 1027 10 16 N/A
7:15 am 07:15 Clear 32 undefined 30 -1 93 93 WNW 10 17 30.35 1028 10 16 N/A
7:35 am 07:35 Sunny 32 undefined 30 -1 93 93 WNW 12 19 30.37 1028 10 16 N/A
7:55 am 07:55 Sunny 32 undefined 30 -1 93 93 WNW 14 22 30.38 1029 10 16 N/A
8:15 am 08:15 Sunny 32 undefined 30 -1 93 93 WNW 12 19 30.39 1029 10 16 N/A
8:35 am 08:35 Sunny 34 1 30 -1 87 87 WNW 15 24 30.41 1030 10 16 N/A
8:55 am 08:55 Sunny 34 1 30 -1 87 87 WNW 12 19 30.43 1031 10 16 N/A
9:15 am 09:15 Mostly Cloudy 34 1 30 -1 87 87 NW 16 26 30.45 1031 10 16 N/A
9:35 am 09:35 Mostly Cloudy 36 2 28 -2 75 75 NW 18 30 30.46 1031 10 16 N/A
9:55 am 09:55 Partly Cloudy 36 2 28 -2 75 75 WNW 16 26 30.47 1032 10 16 N/A
10:15 am 10:15 Sunny 36 2 28 -2 75 75 NW 15 24 30.48 1032 10 16 N/A
10:35 am 10:35 Partly Cloudy 36 2 27 -3 70 70 NW 16 26 30.49 1032 10 16 N/A
10:55 am 10:55 Mostly Cloudy 36 2 27 -3 70 70 NW 15 24 30.50 1033 10 16 N/A
11:15 am 11:15 Mostly Cloudy 37 3 27 -3 65 65 NW 15 24 30.50 1033 10 16 N/A
11:35 am 11:35 Partly Cloudy 36 2 27 -3 70 70 NNW 16 26 30.51 1033 10 16 N/A
11:55 am 11:55 Partly Cloudy 37 3 27 -3 65 65 NW 15 24 30.52 1033 10 16 N/A
12:15 pm 12:15 Mostly Cloudy 39 4 27 -3 61 61 WNW 16 26 30.52 1034 10 16 N/A
12:35 pm 12:35 Partly Cloudy 37 3 27 -3 65 65 WNW 13 20 30.52 1033 10 16 N/A
12:55 pm 12:55 Partly Cloudy 39 4 28 -2 65 65 WNW 13 20 30.52 1034 10 16 N/A
1:15 pm 13:15 Partly Cloudy 39 4 27 -3 61 61 WNW 10 17 30.52 1034 10 16 N/A
1:35 pm 13:35 Partly Cloudy 39 4 27 -3 61 61 NW 15 24 30.52 1034 10 16 N/A
1:55 pm 13:55 Partly Cloudy 39 4 27 -3 61 61 NW 15 24 30.51 1033 10 16 N/A
2:15 pm 14:15 Sunny 41 5 27 -3 57 57 WNW 12 19 30.51 1033 10 16 N/A
2:35 pm 14:35 Sunny 39 4 27 -3 61 61 WNW 9 15 30.51 1033 10 16 N/A
2:55 pm 14:55 Sunny 39 4 27 -3 61 61 WNW 12 19 30.52 1034 10 16 N/A
3:15 pm 15:15 Sunny 41 5 27 -3 57 57 NW 12 19 30.52 1033 10 16 N/A
3:35 pm 15:35 Sunny 39 4 27 -3 61 61 WNW 13 20 30.52 1034 10 16 N/A
3:55 pm 15:55 Sunny 39 4 25 -4 56 56 WNW 13 20 30.52 1034 10 16 N/A
4:15 pm 16:15 Sunny 39 4 25 -4 56 56 NW 9 15 30.52 1034 10 16 N/A
4:35 pm 16:35 Sunny 39 4 25 -4 56 56 NW 12 19 30.53 1034 10 16 N/A
4:55 pm 16:55 Sunny 37 3 25 -4 60 60 NW 9 15 30.54 1034 10 16 N/A
5:15 pm 17:15 Sunny 37 3 23 -5 56 56 WNW 8 13 30.54 1034 10 16 N/A
5:35 pm 17:35 Clear 34 1 23 -5 65 65 NW 6 9 30.54 1034 10 16 N/A
5:55 pm 17:55 Clear 32 undefined 23 -5 69 69 W 7 11 30.56 1035 10 16 N/A
6:15 pm 18:15 Clear 32 undefined 23 -5 69 69 W 5 7 30.56 1035 10 16 N/A
6:35 pm 18:35 Clear 28 -2 23 -5 80 80 W 5 7 30.56 1035 10 16 N/A
6:55 pm 18:55 Clear 30 -1 23 -5 75 75 W 5 7 30.57 1035 10 16 N/A
7:15 pm 19:15 Clear 30 -1 23 -5 75 75 WSW 5 7 30.57 1035 10 16 N/A
7:35 pm 19:35 Clear 27 -3 23 -5 86 86 WSW 6 9 30.58 1035 10 16 N/A
7:55 pm 19:55 Clear 30 -1 23 -5 75 75 W 6 9 30.57 1035 10 16 N/A
8:15 pm 20:15 Clear 28 -2 23 -5 80 80 W 5 7 30.57 1035 10 16 N/A
8:35 pm 20:35 Clear 28 -2 23 -5 80 80 WSW 5 7 30.57 1035 10 16 N/A
8:55 pm 20:55 Clear 28 -2 23 -5 80 80 W 6 9 30.57 1035 10 16 N/A
9:15 pm 21:15 Clear 28 -2 23 -5 80 80 W 6 9 30.57 1035 10 16 N/A
9:35 pm 21:35 Clear 27 -3 23 -5 86 86 W 6 9 30.58 1035 10 16 N/A
9:55 pm 21:55 Clear 28 -2 23 -5 80 80 W 5 7 30.56 1035 10 16 N/A
10:15 pm 22:15 Mostly Cloudy 27 -3 25 -4 93 93 N N/A 30.58 1035 10 16 N/A
10:35 pm 22:35 Cloudy 28 -2 28 -2 100 100 N N/A 30.57 1035 10 16 N/A
10:55 pm 22:55 Cloudy 30 -1 28 -2 93 93 N N/A 30.57 1035 10 16 N/A
11:15 pm 23:15 Cloudy 32 undefined 28 -2 87 87 N N/A 30.57 1035 10 16 N/A
11:35 pm 23:35 Cloudy 32 undefined 30 -1 93 93 N N/A 30.57 1035 10 16 N/A
11:55 pm 23:55 Cloudy 32 undefined 30 -1 93 93 N N/A 30.57 1035 10 16 N/A

Powered by AerisWeather